Sheboygan, WI

12:44 PM CDT on October 17, 2017 (GMT -0500)
Sheboygan County Memorial

Weather History for KSBM - July, 2014

Change the Weather History Date:

Monday, July 7, 2014

  Actual Average Record
Temperature  
Mean Temperature 76 °F -  
Max Temperature 84 °F 79 °F 99 °F (1988)
Min Temperature 66 °F 60 °F 44 °F (1997)
Cooling Degree Days 12    
Growing Degree Days 26 (Base 50)    
Moisture  
Dew Point 63 °F    
Average Humidity 67    
Maximum Humidity 93    
Minimum Humidity 44    
Precipitation  
Precipitation 0.02 in - - ()
Sea Level Pressure  
Sea Level Pressure 29.67 in    
Wind  
Wind Speed 9 mph (West)    
Max Wind Speed 17 mph    
Max Gust Speed 24 mph    
Visibility 10 miles    
Events Rain    
Averages and records for this station are not official NWS values.
T = Trace of Precipitation, MM = Missing Value Source: NWS Daily Summary

Daily Weather History Graph

Daily Weather History Graph

Search for Another Location

Airport or City:

Trip Planner

Search our weather history database for the weather conditions in past years. The results will help you decide how hot, cold, wet, or windy it might be!

Date:

Astronomy

Jul. 07, 2014 Rise Set
Actual Time 5:17 AM CDT 8:35 PM CDT
Civil Twilight 4:41 AM CDT 9:10 PM CDT
Nautical Twilight 3:55 AM CDT 9:56 PM CDT
Astronomical Twilight 2:58 AM CDT 10:53 PM CDT
Moon 3:33 PM CDT (7/7) 1:16 AM CDT (7/7)
Length of Visible Light 16h 29m
Length of Day
15h 18m
Waxing Gibbous, 72% of the Moon is Illuminated
Jul 7
Waxing Gibbous
Jul 12
Full
Jul 18
Last Quarter
Jul 26
New
Aug 3
First Quarter

Hourly Weather History & Observations

Time (CDT) Temp. Heat Index Dew Point Humidity Pressure Visibility Wind Dir Wind Speed Gust Speed Precip Events Conditions
12:53 AM 73.9 °F - 71.1 °F 91% 29.61 in 7.0 mi WSW 6.9 mph - N/A   Partly Cloudy
1:53 AM 75.0 °F - 71.1 °F 87% 29.62 in 10.0 mi West 8.1 mph - N/A   Partly Cloudy
2:53 AM 73.0 °F - 70.0 °F 90% 29.63 in 8.0 mi WNW 4.6 mph - N/A   Partly Cloudy
3:53 AM 72.0 °F - 70.0 °F 93% 29.65 in 7.0 mi WNW 4.6 mph - N/A   Scattered Clouds
4:53 AM 71.1 °F - 68.0 °F 90% 29.67 in 9.0 mi WNW 4.6 mph - N/A   Mostly Cloudy
5:53 AM 70.0 °F - 64.9 °F 84% 29.68 in 10.0 mi WNW 4.6 mph - N/A   Clear
6:53 AM 71.1 °F - 64.0 °F 78% 29.69 in 10.0 mi WNW 8.1 mph - N/A   Clear
7:53 AM 73.0 °F - 64.0 °F 73% 29.70 in 10.0 mi WNW 8.1 mph - N/A   Clear
8:53 AM 75.0 °F - 62.1 °F 64% 29.70 in 10.0 mi WNW 8.1 mph - N/A   Clear
9:53 AM 77.0 °F - 62.1 °F 60% 29.71 in 10.0 mi West 10.4 mph - N/A   Clear
10:53 AM 79.0 °F - 59.0 °F 50% 29.70 in 10.0 mi West 10.4 mph - N/A   Clear
11:53 AM 81.0 °F 81.3 °F 59.0 °F 47% 29.70 in 10.0 mi West 13.8 mph - N/A   Clear
12:53 PM 82.0 °F 82.1 °F 59.0 °F 45% 29.70 in 10.0 mi West 16.1 mph - N/A   Clear
1:53 PM 82.0 °F 82.4 °F 60.1 °F 47% 29.70 in 10.0 mi West 13.8 mph - N/A   Partly Cloudy
2:53 PM 84.0 °F 84.5 °F 62.1 °F 47% 29.68 in 10.0 mi West 17.3 mph 21.9 mph N/A   Clear
3:53 PM 84.0 °F 84.0 °F 60.1 °F 44% 29.68 in 10.0 mi West 12.7 mph - N/A   Partly Cloudy
4:53 PM 82.9 °F 82.8 °F 59.0 °F 44% 29.66 in 10.0 mi WSW 15.0 mph 23.0 mph N/A   Clear
5:53 PM 81.0 °F 81.6 °F 60.1 °F 49% 29.67 in 10.0 mi West 12.7 mph 19.6 mph N/A   Clear
6:53 PM 78.1 °F - 62.1 °F 58% 29.67 in 10.0 mi WSW 6.9 mph - N/A   Clear
7:53 PM 75.9 °F - 62.1 °F 62% 29.68 in 10.0 mi WSW 9.2 mph - N/A   Clear
8:53 PM 73.0 °F - 64.0 °F 73% 29.65 in 10.0 mi SW 11.5 mph - 0.00 in Rain Light Rain
9:53 PM 72.0 °F - 64.0 °F 76% 29.65 in 10.0 mi West 5.8 mph - 0.00 in   Clear
10:53 PM 69.1 °F - 62.1 °F 78% 29.64 in 10.0 mi West 10.4 mph - 0.01 in   Scattered Clouds
11:53 PM 66.0 °F - 62.1 °F 87% 29.65 in 10.0 mi WNW 11.5 mph 24.2 mph 0.01 in Rain Light Rain